Regional Weather Roundup
Issued by NWS

Home | Current Version | Previous Version | Text Only | Print | Product List | Glossary Off
Versions: 1 2 3 4 5 6 7 8 9 10 11 12 13 14 15 16 17 18 19 20 21 22 23 24 25 26 27 28 29 30 31 32 33 34 35 36 37 38 39 40 41 42 43 44 45 46 47 48 49 50

000
ASUS43 KDTX 011901
RWRMI
MICHIGAN HOURLY REGIONAL WEATHER ROUNDUP
NATIONAL WEATHER SERVICE DETROIT/PONTIAC MI
300 PM EDT SUN MAY 01 2016

NOTE: "FAIR" INDICATES FEW OR NO CLOUDS BELOW 12,000 FEET WITH NO
SIGNIFICANT WEATHER AND/OR OBSTRUCTION TO VISIBILITY.

MIZ047>049-052>055-059>063-066>070-074>076-081>083-012000-
SOUTHEAST LOWER MICHIGAN

CITY           SKY/WX    TMP DP  RH WIND       PRES   REMARKS
ADRIAN         CLOUDY    54  50  86 NE5       29.98S
ALMA           CLOUDY    49  45  87 N10G23    30.03F
ANN ARBOR      CLOUDY    52  49  89 NE7       29.98S
BAD AXE        CLOUDY    45  44  97 NE14G21   30.05F FOG
CARO           CLOUDY    48  44  86 NE8       30.03R
DETROIT CITY   CLOUDY    52  47  83 N6        29.99S
DETROIT        CLOUDY    53  48  83 N7        29.99S HAZE
FLINT          CLOUDY    53  46  77 NE9       30.02R
GROSSE ILE     CLOUDY    54  50  87 NE6       29.97S
HILLSDALE      CLOUDY    52  51  97 CALM      29.97S
HOWELL         CLOUDY    49  48  94 N6        30.00R

CITY           SKY/WX    TMP DP  RH WIND       PRES   REMARKS
JACKSON        CLOUDY    50  47  89 N8        29.99R
LAMBERTVILLE   CLOUDY    56  51  84 N3        29.98R
LANSING        CLOUDY    49  46  90 NE9       30.02R FOG
LAPEER         CLOUDY    48  45  88 NE8       30.02R
MASON          CLOUDY    49  47  93 NE9       30.00R
MONROE         CLOUDY    53  51  93 NE6       29.97S FOG
MT. CLEMENS    CLOUDY    52  52  99 N7        29.99R
PONTIAC        CLOUDY    50  46  86 N6        29.99R
PORT HOPE        N/A     43  40  89 NE15      30.04S
PORT HURON     CLOUDY    50  45  81 N9        30.00R
TRI CITIES     CLOUDY    49  43  80 NE17      30.05R
MIDLAND        CLOUDY    49  42  78 NE14G22   30.06R
TROY           CLOUDY    52  48  88 N3        30.01R
SAGINAW HB     CLOUDY    46  45  93 N14       30.04R
$$
MIZ043>046-050>051-056>058-064>065-071>073-077>080-012000-
SOUTHWEST LOWER MICHIGAN

CITY           SKY/WX    TMP DP  RH WIND       PRES   REMARKS
BATTLE CREEK   CLOUDY    50  46  86 NE9       30.00R
BENTON HARBOR  CLOUDY    54  47  77 E6        29.98S
BIG RAPIDS     CLOUDY    48  44  84 NE12G18   30.03F
COLDWATER      CLOUDY    53  50  91 NE5       29.98S
FREMONT        CLOUDY    53  45  75 NE8G16    30.01S
HOLLAND        CLOUDY    52  47  83 E12       30.01S
GRAND RAPIDS   CLOUDY    51  46  83 E14       30.01R
IONIA          CLOUDY    48  46  92 NE9       30.02R
KALAMAZOO      CLOUDY    51  46  83 NE7       30.00S
LUDINGTON      CLOUDY    52  44  74 NE10G16   30.04F
MARSHALL       CLOUDY    51  47  87 NE6       29.99R
MOUNT PLEASANT   N/A     51  44  78 NE13G18   30.03F
MUSKEGON       CLOUDY    55  44  66 NE13      30.01R
$$
MIZ016>042-012000-
NORTHERN LOWER MICHIGAN

CITY           SKY/WX    TMP DP  RH WIND       PRES   REMARKS
ALPENA         CLOUDY    52  35  52 E15G24    30.11S
BEAVER ISLAND  CLOUDY    53  33  48 E7        30.13F
BELLAIRE       CLOUDY    54  40  59 NE9G16    30.10S
CADILLAC       CLOUDY    48  42  80 E14G22    30.05S
CHARLEVOIX     CLOUDY    56  37  49 NE12      30.13S
FRANKFORT      CLOUDY    51  42  71 NE9       30.08S
GAYLORD        CLOUDY    50  39  66 E9        30.09S
HARBOR SPRINGS CLOUDY    57  36  45 NE12G22   30.10F
HOUGHTON LAKE  CLOUDY    51  38  60 E20G29    30.07R
MANISTEE       CLOUDY    52  39  62 E10       30.07S
OSCODA         CLOUDY    49  39  67 N10       30.09R
PELLSTON       CLOUDY    55  33  43 NE8       30.12F
ROGERS CITY    CLOUDY    46  34  63 N7        30.14R
TRAVERSE CITY  DRIZZLE   51  43  74 NE7       30.09R
$$
MIZ007>008-015-012000-
EASTERN UPPER MICHIGAN

CITY           SKY/WX    TMP DP  RH WIND       PRES   REMARKS
KINROSS          N/A     57  27  30 NE9       30.11F
MACKINAC ISLAN PTSUNNY   55  32  41 E3        30.12F
NEWBERRY       PTSUNNY   59  32  36 CALM      30.10F
S. S. MARIE    PTSUNNY   60  31  33 SE8       30.09F
MUNISING         N/A     45  36  70 NW13      30.15F
$$
MIZ004>006-011>014-085-012000-
CENTRAL UPPER MICHIGAN

CITY           SKY/WX    TMP DP  RH WIND       PRES   REMARKS
MANISTIQUE     SUNNY     55  32  41 SE9       30.12S
ESCANABA       SUNNY     54  32  43 SE12      30.12S
MENOMINEE      SUNNY     54  36  50 E12       30.12S
SAWYER-GWINN   MOSUNNY   50  32  50 N17       30.16F
$$
MIZ001>003-009>011-084-012000-
WESTERN UPPER MICHIGAN

CITY           SKY/WX    TMP DP  RH WIND       PRES   REMARKS
IRON MOUNTAIN  PTSUNNY   59  27  29 NE15G22   30.09S
HOUGHTON       SUNNY     52  35  52 E7        30.18F
COPPER HARBOR    N/A     45  38  76 NE3       30.21F
IRONWOOD         N/A     48  36  61 N14       30.15S
$$

ABBREVIATIONS USED IN REMARKS
   TC - TEMPERATURE IN CELSIUS
  WCI - WIND CHILL INDEX
   HX - HEAT INDEX
  VSB - VISIBILITY





USA.gov is the U.S. government's official web portal to all federal, state and local government web resources and services.